Regional Weather Roundup
Issued by NWS

Home | Current Version | Previous Version | Graphics & Text | Print | Product List | Glossary On
Versions: 1 2 3 4 5 6 7 8 9 10 11 12 13 14 15 16 17 18 19 20 21 22 23 24 25 26 27 28 29 30 31 32 33 34 35 36 37 38 39 40 41 42 43 44 45 46 47 48 49 50
000
ASUS43 KDMX 271304
RWRIA

WEATHER ROUNDUP FOR IOWA
NATIONAL WEATHER SERVICE DES MOINES IA
  ISSUED BY NWS QUAD CITIES IA IL
700 AM CST FRI FEB 27 2015

NOTE: "FAIR" INDICATES FEW OR NO CLOUDS BELOW 12,000 FEET WITH NO
SIGNIFICANT WEATHER AND/OR OBSTRUCTIONS TO VISIBILITY.

* - THESE STATIONS ARE NOT NWS STATIONS...THUS NOT UNDER NWS
QUALITY CONTROL.  THEY ALSO DO NOT REPORT WEATHER SUCH
AS PRECIPITATION OR FOG.

IAZ001>003-012>014-020>022-031>034-043>046-271400-
   NORTHWEST IOWA

CITY           SKY/WX    TMP DP  RH WIND       PRES   REMARKS
CARROLL *      CLEAR    -11 -17  77 W9        30.57S WCI -29
CHEROKEE *     MOSUNNY  -19 -25  77 CALM      30.58R
DENNISON *     PTCLDY   -17 -24  70 CALM      30.56S
LE MARS *      PTCLDY   -15 -18  84 CALM      30.59R
ORANGE CITY *  PTCLDY    -9 -15  77 CALM      30.53S
SHELDON *      PTCLDY   -17 -24  70 CALM      30.53S
SIOUX CITY     CLEAR     -7 -11  83 NW5       30.60R WCI -18
SPENCER        PTCLDY   -15 -21  74 W5        30.55R WCI -27
STORM LAKE *   PTCLDY    -8 -13  77 NW9       30.54S WCI -25
$$

IAZ055>058-069>071-079>083-090>094-271400-
   SOUTHWEST IOWA

CITY           SKY/WX    TMP DP  RH WIND       PRES   REMARKS
ATLANTIC *     CLEAR     -9 -17  70 CALM      30.59S
AUDUBON *      PTCLDY   -15 -20  76 CALM      30.56S
CLARINDA *     CLEAR     -4  -8  84 CALM      30.64R
COUNCIL BLFS * CLEAR     -2  -6  84 NW5       30.57S WCI -12
CRESTON *      CLEAR     -8 -13  77 NW6       30.57R WCI -21
HARLAN *       PTCLDY   -11 -15  84 CALM      30.62R
LAMONI         CLEAR     -6 -11  79 NW6       30.58R WCI -19
RED OAK *      CLEAR     -6  -9  84 CALM      30.62R
SHENANDOAH *   CLEAR     -8 -11  84 CALM      30.64R
$$

IAZ047>049-059>061-072>074-084-271400-
   CENTRAL IOWA

CITY           SKY/WX    TMP DP  RH WIND       PRES   REMARKS
AMES           PTCLDY   -14 -20  74 W3        30.59R
ANKENY *       CLEAR     -8 -13  77 NW6       30.60S WCI -21
BOONE *        PTCLDY    -9 -15  77 NW6       30.55R WCI -23
CHARITON *     CLEAR     -9 -15  77 W5        30.58R WCI -21
DES MOINES     CLEAR     -7 -13  75 NW5       30.59S WCI -18
GRINNELL *     MOSUNNY  -14 -19  79 NW7       30.57R WCI -30
KNOXVILLE *    PTCLDY    -9 -17  70 W6        30.58R WCI -23
MARSHALLTOWN   MOCLDY   -17 -21  82 W8        30.56R WCI -35
NEWTON *       PTCLDY    -9 -17  70 NW7       30.58S WCI -24
PELLA *        PTCLDY   -11 -13  89 W5        30.61R WCI -23
PERRY *          N/A    -12 -16  82 W7        30.58S WCI -28
$$

IAZ004>006-015-016-023>025-035-036-271400-
   NORTH CENTRAL IOWA

CITY           SKY/WX    TMP DP  RH WIND       PRES   REMARKS
ALGONA *       PTCLDY   -13 -17  84 SW5       30.55S WCI -25
CLARION *      MOCLDY   -24 -31  69 S5        30.56S WCI -38
ESTHERVILLE    CLEAR    -13 -17  82 W8        30.53R WCI -30
FORT DODGE *   PTCLDY   -11 -17  77 CALM      30.57S
MASON CITY     MOCLDY   -16 -20  82 W8        30.54R WCI -34
FOREST CITY *  FAIR     -17 -26  63 CALM      30.53S
WEBSTER CITY * PTCLDY   -15 -22  70 NW9       30.55S WCI -33
IOWA FALLS *   FAIR     -19 -25  74 W5        30.56R WCI -32
$$

IAZ007>011-017>019-026>030-037>042-050>054-066-271400-
   NORTHEAST IOWA

CITY           SKY/WX    TMP DP  RH WIND       PRES   REMARKS
CEDAR RAPIDS   MOCLDY   -17 -20  86 NW8       30.56R WCI -35
CHARLES CITY * MOCLDY   -20 -27  69 W7        30.55R WCI -37
CLINTON *      PTCLDY   -18 -20  91 CALM      30.59R
DECORAH *      PTCLDY   -11 -18  70 CALM      30.51R
DUBUQUE        PTCLDY   -18 -21  87 CALM      30.52R
MONTICELLO *   PTCLDY   -20 -27  69 CALM      30.57R
OELWEIN *      MOCLDY   -18 -26  69 NW5       30.54S WCI -31
WATERLOO       MOCLDY   -23 -24  95 CALM      30.57R
$$

IAZ064-065-067-068-078-271400-
   EAST CENTRAL IOWA

CITY           SKY/WX    TMP DP  RH WIND       PRES   REMARKS
DAVENPORT      PTCLDY   -17 -22  78 W3        30.58R
IOWA CITY      MOCLDY   -13 -16  86 VRB3      30.62R
MT. PLEASANT * MOCLDY   -12 -16  79 W5        30.60S WCI -23
MUSCATINE *    PTCLDY   -11 -15  84 CALM      30.62S
QUAD CITIES    PTCLDY   -12 -16  82 W7        30.59R WCI -27
$$

IAZ062-063-075>077-085>089-095>099-271400-
   SOUTHEAST IOWA

CITY           SKY/WX    TMP DP  RH WIND       PRES   REMARKS
BURLINGTON     PTCLDY   -12 -15  86 CALM      30.60R
FAIRFIELD *    PTCLDY   -13 -20  70 W6        30.60R WCI -27
FORT MADISON * MOCLDY    -9 -15  77 NW6       30.60R WCI -23
KEOKUK *       MOCLDY    -9 -13  84 CALM      30.61R
OSKALOOSA *    FAIR     -11 -15  80 NW6       30.60R WCI -24
CENTERVILLE *  FAIR      -8 -11  84 W6        30.60R WCI -21
OTTUMWA        PTCLDY   -10 -15  78 W7        30.58S WCI -25
WASHINGTON *   MOCLDY   -13 -17  84 NW8       30.59S WCI -30
$$

ABBREVIATIONS USED IN REMARKS
   TC - TEMPERATURES IN CELSIUS
  WCI - WIND CHILL INDEX
   HX - HEAT INDEX
  VSB - VISIBILITY
$$



USA.gov is the U.S. government's official web portal to all federal, state and local government web resources and services.